FW6463 Weather Reports


time (UTC)temp
F
wind
direction
speed
knots
gust
knots
rain 1hr
in
rain 24hr
in
rain mn
in
humidity
%
barometer
mb
20260901052517 69 0.0 0.0 0.00 0.01 0.00 99 1021.7
20260901051542 69 0.0 0.0 0.00 0.01 0.00 99 1021.5
20260901050547 70 0.0 0.0 0.00 0.01 0.00 99 1021.4
20260901045526 70 0.0 0.0 0.00 0.01 0.00 99 1021.4
20260901044518 70 0.0 0.0 0.00 0.01 0.00 99 1021.5
20260901043523 71 0.0 0.0 0.00 0.01 0.00 99 1021.7
20260901042523 71 0.0 0.0 0.00 0.01 0.00 99 1021.5
20260901041515 71 0.0 0.0 0.00 0.01 0.00 99 1021.6
20260901040520 71 0.0 0.0 0.00 0.01 0.00 99 1021.7
20260901035520 71 0.0 0.0 0.00 0.01 0.01 99 1021.8
20260901034538 71 0.0 0.0 0.00 0.01 0.01 99 1021.7
20260901033517 71 0.0 0.0 0.00 0.01 0.01 99 1021.7
20260901032516 71 0.0 0.0 0.00 0.01 0.01 99 1021.9
20260901031547 71 0.0 0.0 0.00 0.01 0.01 99 1022.0
20260901030613 72 158 0.0 1.7 0.00 0.01 0.01 99 1022.1
20260901025518 72 166 0.9 1.7 0.00 0.01 0.01 99 1022.2
20260901024544 72 0.0 0.0 0.00 0.01 0.01 99 1022.4
20260901023529 72 0.0 0.0 0.00 0.01 0.01 99 1022.4
20260901022516 72 0.0 0.0 0.00 0.01 0.01 99 1022.4
20260901021520 72 0.0 0.0 0.00 0.01 0.01 99 1022.4
20260901020526 72 0.0 0.0 0.00 0.01 0.01 99 1022.4
20260901015530 72 135 0.0 0.9 0.00 0.01 0.01 99 1022.4
20260901014517 72 0.0 0.0 0.00 0.01 0.01 99 1022.2
20260901013522 72 0.0 0.0 0.00 0.01 0.01 99 1022.0
20260901012547 72 0.0 0.0 0.00 0.01 0.01 99 1021.9
20260901011552 72 0.0 0.0 0.00 0.01 0.01 99 1021.8
20260901010519 72 0.0 0.0 0.00 0.01 0.01 99 1021.7
20260901005524 72 113 0.9 1.7 0.00 0.01 0.01 99 1021.7
20260901004549 73 0.0 0.0 0.00 0.01 0.01 99 1021.4
20260901003516 73 0.0 0.0 0.00 0.01 0.01 99 1021.3
20260901002521 74 0.0 0.0 0.00 0.01 0.01 99 1021.2
20260901001526 74 0.0 0.0 0.00 0.01 0.01 99 1021.2
20260901000531 75 0.0 0.0 0.00 0.01 0.01 98 1021.2
20260831235538 76 0.0 0.0 0.00 0.01 0.01 97 1021.3
20260831234523 77 0.0 0.0 0.00 0.01 0.01 95 1021.4
20260831233548 79 203 0.0 0.9 0.00 0.01 0.01 92 1021.5
20260831232533 79 215 0.9 1.7 0.00 0.01 0.01 92 1021.7
20260831231519 80 230 1.7 2.6 0.00 0.01 0.01 90 1021.7
20260831230524 81 228 1.7 2.6 0.00 0.01 0.01 90 1021.7
20260831225530 80 246 0.9 1.7 0.00 0.01 0.01 91 1021.7
20260831224516 81 0.0 0.0 0.00 0.01 0.01 89 1021.8
20260831223521 82 233 1.7 3.5 0.00 0.01 0.01 86 1021.7
20260831222526 84 227 0.9 2.6 0.00 0.01 0.01 83 1021.8
20260831221551 85 241 1.7 3.5 0.00 0.01 0.01 82 1021.8
20260831220518 84 195 2.6 3.5 0.00 0.01 0.01 84 1021.8
20260831215523 82 185 2.6 3.5 0.00 0.01 0.01 87 1021.8
20260831214528 81 202 0.9 1.7 0.00 0.01 0.01 87 1022.2
20260831213515 81 204 1.7 4.3 0.00 0.01 0.01 86 1022.4
20260831212520 83 245 0.9 2.6 0.00 0.01 0.01 86 1022.4
20260831211525 81 170 1.7 3.5 0.00 0.01 0.01 87 1022.3
20260831210530 81 177 1.7 3.5 0.00 0.01 0.01 88 1022.2
20260831205517 80 177 1.7 3.5 0.00 0.01 0.01 88 1022.4
20260831204543 81 195 1.7 2.6 0.00 0.01 0.01 85 1022.4
20260831203547 82 246 2.6 3.5 0.00 0.01 0.01 84 1022.4
20260831202552 81 184 3.5 5.2 0.00 0.01 0.01 85 1022.5
20260831201519 81 235 1.7 5.2 0.00 0.01 0.01 85 1022.6
20260831200524 81 227 1.7 3.5 0.00 0.01 0.01 84 1022.7
20260831195549 81 235 1.7 3.5 0.00 0.01 0.01 85 1022.7
20260831194515 81 203 1.7 2.6 0.00 0.01 0.01 85 1022.7
20260831193521 81 242 1.7 1.7 0.00 0.01 0.01 84 1022.9
20260831192525 82 227 2.6 3.5 0.00 0.01 0.01 84 1022.9
20260831191524 82 238 2.6 3.5 0.00 0.01 0.01 82 1023.0
20260831190517 82 230 2.6 4.3 0.00 0.01 0.01 82 1023.2
20260831185542 82 254 3.5 5.2 0.00 0.01 0.01 81 1023.2
20260831184521 84 267 4.3 5.2 0.00 0.01 0.01 78 1023.2
20260831183520 85 265 3.5 6.1 0.00 0.01 0.01 78 1023.2
20260831182519 85 262 3.5 4.3 0.00 0.01 0.01 79 1023.3
20260831181518 83 186 2.6 3.5 0.00 0.01 0.01 81 1023.4
20260831180557 83 262 2.6 3.5 0.00 0.01 0.01 80 1023.4
20260831175536 81 165 2.6 2.6 0.00 0.01 0.01 82 1023.4
20260831174521 82 286 2.6 4.3 0.00 0.01 0.01 81 1023.6
20260831173525 83 301 1.7 3.5 0.00 0.01 0.01 81 1023.4
20260831172551 81 1 0.9 2.6 0.00 0.01 0.01 85 1023.6
20260831171517 83 267 2.6 3.5 0.00 0.01 0.01 81 1023.6
20260831170522 84 183 2.6 3.5 0.00 0.01 0.01 79 1023.6
20260831165527 83 192 2.6 3.5 0.00 0.01 0.01 81 1023.7
20260831164552 82 204 2.6 4.3 0.00 0.01 0.01 82 1023.8
20260831163520 84 287 3.5 5.2 0.00 0.01 0.01 79 1023.8
20260831162524 83 275 3.5 4.3 0.00 0.01 0.01 83 1024.0
20260831161530 81 293 0.9 1.7 0.00 0.01 0.01 89 1023.9
20260831160516 80 319 1.7 1.7 0.00 0.01 0.01 88 1023.9
20260831155521 79 147 0.9 1.7 0.00 0.01 0.01 89 1024.1
20260831154526 80 209 1.7 2.6 0.00 0.01 0.01 88 1024.0
20260831153531 82 279 2.6 4.3 0.00 0.01 0.01 83 1023.9
20260831152518 80 222 1.7 2.6 0.00 0.01 0.01 84 1024.0
20260831151523 80 249 1.7 2.6 0.00 0.01 0.01 85 1024.1
20260831150528 80 282 1.7 3.5 0.00 0.01 0.01 84 1024.2
20260831145532 80 358 1.7 2.6 0.00 0.01 0.01 85 1024.3
20260831144540 78 293 0.9 1.7 0.00 0.01 0.01 90 1024.1
20260831143544 78 269 1.7 2.6 0.00 0.01 0.01 88 1024.1
20260831142529 79 231 1.7 2.6 0.00 0.01 0.01 86 1024.2
20260831141517 77 299 0.9 1.7 0.00 0.01 0.01 91 1024.2
20260831140521 77 225 0.0 1.7 0.00 0.01 0.01 88 1024.3
20260831135526 76 243 0.0 1.7 0.00 0.01 0.01 93 1024.4
20260831134531 76 0.0 1.7 0.00 0.01 0.01 94 1024.4
20260831133538 73 203 0.9 1.7 0.00 0.01 0.01 99 1024.5
20260831132523 73 0.9 1.7 0.00 0.01 0.01 99 1024.5
20260831131548 73 75 0.9 1.7 0.00 0.01 0.01 99 1024.5
20260831130533 72 0.0 0.0 0.00 0.01 0.01 99 1024.5
20260831125520 71 315 0.9 1.7 0.00 0.01 0.01 99 1024.4
20260831124525 70 0.0 0.0 0.00 0.01 0.01 99 1024.2
20260831123530 70 0.0 0.0 0.00 0.01 0.01 99 1024.3
20260831122516 69 0.0 0.0 0.00 0.01 0.01 99 1024.2
20260831121521 68 297 0.9 1.7 0.00 0.01 0.01 99 1024.1
20260831120546 68 0.0 0.0 0.01 0.01 0.01 99 1024.0
20260831115531 68 175 0.9 1.7 0.01 0.01 0.01 99 1023.9
20260831114518 68 0.0 0.0 0.01 0.01 0.01 99 1024.1
20260831113523 67 0.0 0.0 0.01 0.01 0.01 99 1024.1
20260831112528 67 0.0 0.0 0.01 0.01 0.01 99 1024.2
20260831111533 67 0.0 0.0 0.01 0.01 0.01 99 1024.1
20260831110520 67 0.0 0.0 0.00 0.00 0.00 99 1024.0
20260831105525 67 0.0 0.0 0.00 0.00 0.00 99 1023.7
20260831104530 67 0.0 0.0 0.00 0.00 0.00 99 1023.6
20260831103517 67 0.0 0.0 0.00 0.00 0.00 99 1023.4
20260831102542 67 0.0 0.0 0.00 0.00 0.00 99 1023.4
20260831101526 67 0.0 0.0 0.00 0.00 0.00 99 1023.3
20260831100525 67 0.0 0.0 0.00 0.00 0.00 99 1023.2
20260831095538 67 0.0 0.0 0.00 0.00 0.00 99 1023.4
20260831094523 66 0.0 0.0 0.00 0.00 0.00 99 1023.2
20260831093522 66 0.0 0.0 0.00 0.00 0.00 99 1022.9
20260831092515 66 0.0 0.0 0.00 0.00 0.00 99 1022.9
20260831091520 66 0.0 0.0 0.00 0.00 0.00 99 1022.9
20260831090519 66 0.0 0.0 0.00 0.00 0.00 99 1022.9
20260831085518 66 0.0 0.0 0.00 0.00 0.00 99 1022.5
20260831084517 67 0.0 0.0 0.00 0.00 0.00 99 1022.4
20260831083515 67 0.0 0.0 0.00 0.00 0.00 99 1022.7
20260831082546 67 0.0 0.0 0.00 0.00 0.00 99 1022.5
20260831081532 67 0.0 0.0 0.00 0.00 0.00 99 1022.4
20260831080519 67 0.0 0.0 0.00 0.00 0.00 99 1022.4
20260831075523 67 0.0 0.0 0.00 0.00 0.00 99 1022.5
20260831074528 68 0.0 0.0 0.00 0.00 0.00 99 1022.7
20260831073515 68 0.0 0.0 0.00 0.00 0.00 99 1022.7
20260831072520 68 0.0 0.0 0.00 0.00 0.00 99 1022.7
20260831071525 69 0.0 0.0 0.00 0.00 0.00 99 1022.7
20260831070530 69 0.0 0.0 0.00 0.00 0.00 99 1022.7
20260831065517 69 0.0 0.0 0.00 0.00 0.00 99 1022.7
20260831064522 69 0.0 0.0 0.00 0.00 0.00 99 1022.4
20260831063527 70 0.0 0.0 0.00 0.00 0.00 99 1022.7
20260831062531 70 0.0 0.0 0.00 0.00 0.00 99 1022.9
20260831061519 70 0.0 0.0 0.00 0.00 0.00 99 1022.9
20260831060524 70 0.0 0.0 0.00 0.00 0.00 99 1023.1
20260831055528 70 0.0 0.0 0.00 0.00 0.00 99 1023.2
20260831054515 70 202 0.0 1.7 0.00 0.00 0.00 99 1023.4
20260831053540 70 0.0 0.0 0.00 0.00 0.00 99 1023.4